Find Starlink 34094

NORAD ID: 63822 Int'l Des: 2025-092 Owner: SPXS Country: US Constellation: starlink operational
LEOCIRCULAR

Live-Position

3D-Globus wird geladen...

Über Starlink 34094

Beschreibung wird geladen...

Nächste Überflüge

Passes for default location (London). Set your location on the main map for personalized predictions.

Höhenverlauf

Loading altitude history...

Zweizeiliger Elementsatz

1 63822U 25092U 26126.50561683 .00010157 00000-0 37827-3 0 9994
2 63822 42.9966 202.8144 0001441 274.2343 85.8344 15.27565781 57545
Epoch: 6. Mai 2026 • Age: 10 hours

Aktueller Status

Höhe 484.0 km
Geschwindigkeit 7.63 km/s
Subsatellitenpunkt 27.23°N, 150.11°E
Startdatum 4. Mai 2025
Alter 1 years
Typ internet

Technische Details

Klassifizierung Payload
Masse 575.00 kg
Trockenmasse 530.00 kg
Gesamtmasse 575.00 kg
Länge 0.30 m
Durchmesser 4.10 m
Spannweite 29.00 m
Form Box + pan
Hersteller SPXS
Bus-Typ Starlink V2MO
Phasenstatus In Orbit
Besitzer/Staat SPXS/US

Most Searched